Location: Aulnoy
(48.8410°N, 3.0967°E)
Time: 12:55:00
(UTC+00:00)

Cosmos 1356 - Pass Details

Date: 09 February 2023
Orbit: 359 x 365 km, 81.1° (Epoch: 21 March)

Event Time Altitude Azimuth Distance (km) Brightness Sun altitude
Rises 18:11:50 0° 352° (N) 2,219 6.9 -12.6°
Reaches altitude 10° 18:13:50 10° 359° (N) 1,372 5.8 -12.9°
Maximum altitude 18:16:44 48° 75° (ENE) 495 3.2 -13.4°
Drops below altitude 10° 18:19:39 10° 152° (SSE) 1,381 5.7 -13.8°
Sets 18:21:40 0° 158° (SSE) 2,236 6.8 -14.2°
